DECAYED

STARLINK-1980, 47578 (Decayed)

Orbit data source: Space-Track

STARLINK-1980, 47578 was a payload satellite owned by SpaceX/Seattle (US) in LEO that was launched on Thu, 04 Feb 2021 UTC via an FALCON 9 launch vehicle from the Air Force Eastern Test Range (AFETR). Payload-class satellites include a variety of spacecraft equipped with specific instruments for various scientific and technological missions. These include communications satellites like Starlink; space stations such as the ISS; scientific satellites like the Hubble; Earth observation satellites from companies like Planet Labs, Umbra, and HawkEye 360; GPS; miniature CubeSats for education and research; and military/defense satellites.

Not visible in the next 10 days
Identifier
47578, 2021-009AG
Orbit
Decayed
Country
Flag of USUS
Related business
Manufacturer
SpaceX/Seattle
Mission
Decayed Commercial Communications
Bus & Motor
STARLINK, Unknown motor
Mass
260 kg wet, ~248 kg dry
Launch date (UTC)
2021-02-04 (5 years ago)
Launch vehicle
FALCON 9
Launch site
Air Force Eastern Test Range (AFETR)
Object type
Payload
Rocket body
Debris
Shape & HBR
Box + 1 Pan, 10.1 m
Radar Cross Section
13.562 m², Large (>1 m²)

Expand to show TLE details & history
Last TLE update: 1 year ago

TLE from 1 year ago
0 STARLINK-1980
1 47578U 21009AG  25073.17306491  .12004417  12414-4  84137-3 0  9992
2 47578  53.0248 148.9760 0004307 306.5427 141.7907 16.40308302227761
Epoch: 2025-03-14T04:09Z
TLE epoch observation values (Epoch: 2025-03-14T04:09:12.808Z)
Latitude
53.15242°
Longitude
1.91384°
Altitude
173.665 km
Speed
7.807 km/s
True Right ascension
15h 45m 00s
True Declination
52° 58' 21"
Sunlit
Object was in full shadow at epoch
Visualization orbit readout
Latitude
Unknown
Longitude
Unknown
Altitude
Unknown
Speed
Unknown
Apparent Right ascension
Unknown
Apparent Declination
Unknown
Sunlit
N/A
Visualization observer readout
Local Sidereal Time
21:40:12
Azimuth
Unknown
Elevation
Unknown
Doppler factor
Unknown
Orbital elements
Apogee altitude
168.092 km
Perigee altitude
162.455 km
Semi-major axis
6,543.411 km
Eccentricity
0.00043
Inclination
53.0248°
RAAN
148.976°
Arg. of periapsis
306.5427°
True anomaly
141.82121°
Mean anomaly
141.7907°
Eccentric anomaly
141.80596°
Mean motion
4.1005 °/min
Orbital period
87.79 mins
BSTAR
0.00084137
Loading maneuver chart data...
Computing Atmospheric mass density...

Documentation

Showing up to 5 results
|